This demonstration page uses our WeatherBlox Daily Observations layout. Learn more.

Left ArrowRight Arrow

38.80484, -77.04692

Hourly Observations for September 11, 2021

Temp ( °F °C ) Dew Point ( °F °C ) Humidity (%) Winds ( mph kmh ) Pressure ( in mb ) Visibility ( mi km ) Precip ( " mm )
12:52 am 00:52 Mostly Clear 66 18.9 54 12.2 65 65 N N/A 30.14 1021 10 16 N/A
1:52 am 01:52 Mostly Clear 63 17.2 57 13.9 81 81 N N/A 30.15 1021 10 16 N/A
2:52 am 02:52 Clear 64 17.8 56 13.3 75 75 N N/A 30.15 1021 10 16 N/A
3:52 am 03:52 Clear 63 17.2 55 12.8 76 76 N N/A 30.17 1022 10 16 N/A
4:52 am 04:52 Mostly Clear 63 17.2 55 12.8 76 76 N N/A 30.18 1022 10 16 N/A
5:52 am 05:52 Mostly Clear 62 16.7 55 12.8 78 78 N N/A 30.19 1022 10 16 N/A
6:52 am 06:52 Mostly Cloudy 61 16.1 54 12.2 78 78 N N/A 30.21 1023 10 16 N/A
7:52 am 07:52 Partly Cloudy 63 17.2 55 12.8 76 76 S 3 6 30.23 1024 10 16 N/A
8:52 am 08:52 Mostly Cloudy 66 18.9 57 13.9 73 73 SSE 5 7 30.23 1024 10 16 N/A
9:52 am 09:52 Mostly Cloudy 69 20.6 57 13.9 66 66 SSE 3 6 30.24 1024 10 16 N/A
10:52 am 10:52 Mostly Cloudy 72 22.2 58 14.4 61 61 SSE 5 7 30.25 1025 10 16 N/A
11:52 am 11:52 Mostly Cloudy 76 24.4 58 14.4 54 54 SSE 8 13 30.24 1024 10 16 N/A
12:52 pm 12:52 Partly Cloudy 77 25 57 13.9 50 50 SSE 9 15 30.22 1023 10 16 N/A
1:52 pm 13:52 Mostly Cloudy 78 25.6 55 12.8 45 45 S 13 20 30.20 1023 10 16 N/A
2:52 pm 14:52 Mostly Cloudy 78 25.6 55 12.8 45 45 SSW 10 17 30.18 1022 10 16 N/A
3:52 pm 15:52 Mostly Cloudy 79 26.1 55 12.8 44 44 SW 9 15 30.16 1022 10 16 N/A
4:52 pm 16:52 Mostly Cloudy 79 26.1 56 13.3 45 45 S 10 17 30.15 1021 10 16 N/A
5:52 pm 17:52 Partly Cloudy 76 24.4 59 15 56 56 S 12 19 30.15 1021 10 16 N/A
6:52 pm 18:52 Mostly Sunny 76 24.4 59 15 56 56 S 10 17 30.14 1021 10 16 N/A
7:52 pm 19:52 Mostly Clear 74 23.3 60 15.6 62 62 S 10 17 30.14 1021 10 16 N/A
8:52 pm 20:52 Clear 72 22.2 60 15.6 66 66 S 8 13 30.16 1021 10 16 N/A
9:52 pm 21:52 Clear 71 21.7 60 15.6 68 68 S 13 20 30.17 1022 10 16 N/A
10:52 pm 22:52 Mostly Clear 70 21.1 60 15.6 71 71 S 10 17 30.17 1022 10 16 N/A
11:52 pm 23:52 Clear 69 20.6 60 15.6 73 73 SSW 9 15 30.18 1022 10 16 N/A

Powered by AerisWeather